TimeMST,TemperatureF,Dew PointF,Humidity,Sea Level PressureIn,VisibilityMPH,Wind Direction,Wind SpeedMPH,Gust SpeedMPH,PrecipitationIn,Events,Conditions,WindDirDegrees,DateUTC
12:53 AM,21.9,12.0,66,30.23,10.0,ESE,8.1,-,N/A,,Clear,110,2013-01-20 07:53:00
1:53 AM,21.0,14.0,74,30.22,10.0,East,8.1,-,N/A,,Clear,100,2013-01-20 08:53:00
2:53 AM,19.9,14.0,78,30.21,10.0,SE,10.4,-,N/A,,Clear,130,2013-01-20 09:53:00
3:53 AM,19.0,15.1,85,30.17,10.0,SSE,8.1,-,N/A,,Clear,150,2013-01-20 10:53:00
4:53 AM,21.9,18.0,85,30.17,10.0,SSE,10.4,-,N/A,,Clear,160,2013-01-20 11:53:00
5:53 AM,19.0,16.0,88,30.23,10.0,Calm,Calm,-,N/A,,Clear,0,2013-01-20 12:53:00
6:53 AM,14.0,10.9,88,30.25,10.0,Calm,Calm,-,N/A,,Clear,0,2013-01-20 13:53:00
7:53 AM,19.9,16.0,85,30.27,10.0,West,6.9,-,N/A,,Clear,270,2013-01-20 14:53:00
8:53 AM,28.0,19.9,72,30.26,10.0,WNW,8.1,-,N/A,,Clear,300,2013-01-20 15:53:00
9:53 AM,33.1,18.0,54,30.29,10.0,NNW,13.8,-,N/A,,Clear,340,2013-01-20 16:53:00
10:53 AM,39.9,19.9,45,30.29,10.0,North,16.1,21.9,N/A,,Clear,350,2013-01-20 17:53:00
11:53 AM,46.0,18.0,33,30.22,10.0,North,23.0,33.4,N/A,,Clear,360,2013-01-20 18:53:00
12:53 PM,43.0,19.9,40,30.26,10.0,North,21.9,29.9,N/A,,Clear,360,2013-01-20 19:53:00
1:53 PM,42.1,21.0,43,30.27,10.0,North,26.5,29.9,N/A,,Clear,10,2013-01-20 20:53:00
2:53 PM,39.0,21.0,49,30.29,10.0,NNE,24.2,31.1,N/A,,Clear,30,2013-01-20 21:53:00
3:53 PM,34.0,19.9,56,30.33,10.0,NE,12.7,-,N/A,,Clear,40,2013-01-20 22:53:00
4:53 PM,28.0,18.0,66,30.37,10.0,NE,10.4,-,N/A,,Clear,50,2013-01-20 23:53:00
5:53 PM,23.0,16.0,74,30.43,10.0,NE,11.5,-,N/A,,Clear,40,2013-01-21 00:53:00
6:53 PM,19.0,14.0,81,30.48,10.0,NNE,6.9,-,N/A,,Clear,30,2013-01-21 01:53:00
7:53 PM,16.0,12.0,84,30.47,10.0,NNE,3.5,-,N/A,,Clear,30,2013-01-21 02:53:00
8:53 PM,15.1,10.9,84,30.44,10.0,NE,4.6,-,N/A,,Clear,40,2013-01-21 03:53:00
9:53 PM,19.0,14.0,81,30.41,10.0,Calm,Calm,-,N/A,,Clear,0,2013-01-21 04:53:00
10:53 PM,16.0,12.0,84,30.40,10.0,Calm,Calm,-,N/A,,Clear,0,2013-01-21 05:53:00
11:53 PM,12.0,8.1,84,30.37,10.0,WSW,3.5,-,N/A,,Clear,250,2013-01-21 06:53:00